Location: Bronnegerveen
(52.9548°N, 6.8388°E)
Time: 01:38:06
(UTC+00:00)

CZ-2D R/B - Pass Details

Date: 15 June 2025
Orbit: 789 x 842 km, 98.8° (Epoch: 07 July)

Event Time Altitude Azimuth Distance (km) Brightness Sun altitude
Rises 01:54:48 0° 17° (NNE) 3,398 7.1 -7.8°
Reaches altitude 10° 01:57:13 10° 20° (NNE) 2,453 6.2 -7.6°
Maximum altitude 02:02:38 66° 103° (ESE) 900 2.5 -7.1°
Drops below altitude 10° 02:07:55 10° 186° (S) 2,403 4.0 -6.7°
Enters shadow 02:09:13 - 188° (S) 2,912 4.5 -6.5°
